📊 Raw Sensor Data

Showing records 41926 to 41950 of 84,991 total

ID Distance (ft) Battery V Battery A Int Temp (°F) Int Humid (%) Ext Temp (°F) Solar V RSSI SNR Time Stamp
43078 15.4 3.95 -5 54 43 55 0.60 -69 8 06/10/2025 05:30 AM
43077 15.4 3.96 -5 54 43 55 0.00 -69 8 06/10/2025 05:15 AM
43076 15.2 3.96 -5 54 43 55 0.00 -70 8 06/10/2025 05:00 AM
43075 15.2 4.01 -5 54 43 55 0.00 -70 8 06/10/2025 04:45 AM
43074 15.2 3.96 -5 54 43 55 0.00 -71 7 06/10/2025 04:30 AM
43073 15.2 3.96 -5 54 44 55 0.00 -73 8 06/10/2025 04:15 AM
43072 15.2 3.96 -5 54 44 55 0.00 -73 8 06/10/2025 04:00 AM
43071 15.2 4.01 -5 55 44 55 0.00 -70 8 06/10/2025 03:45 AM
43070 15.2 3.96 -5 55 44 56 0.00 -71 8 06/10/2025 03:30 AM
43069 15.2 3.96 -5 55 44 56 0.00 -71 8 06/10/2025 03:15 AM
43068 15.2 3.96 -5 55 44 56 0.00 -72 8 06/10/2025 03:00 AM
43067 15.2 4.02 -5 55 44 56 0.00 -71 8 06/10/2025 02:45 AM
43066 15.2 4.02 -5 55 44 56 0.00 -71 8 06/10/2025 02:30 AM
43065 15.2 3.96 -5 56 44 56 0.00 -70 8 06/10/2025 02:15 AM
43064 15.2 3.96 -5 56 44 57 0.00 -70 8 06/10/2025 02:00 AM
43063 15.2 4.02 -5 56 44 57 0.00 -72 8 06/10/2025 01:45 AM
43062 15.2 3.96 -5 56 44 57 0.00 -69 8 06/10/2025 01:30 AM
43061 15.2 3.97 -5 57 44 57 0.00 -69 8 06/10/2025 01:15 AM
43060 15.2 3.97 -5 57 44 58 0.00 -71 8 06/10/2025 01:00 AM
43059 15.2 3.97 -5 57 44 58 0.00 -71 7 06/10/2025 12:45 AM
43058 15.2 3.97 -5 58 45 58 0.00 -71 8 06/10/2025 12:30 AM
43057 15.2 4.03 -5 58 45 58 0.00 -70 8 06/10/2025 12:15 AM
43056 15.2 4.03 -5 58 45 59 0.00 -73 8 06/10/2025 12:00 AM
43055 15.2 4.03 -5 58 45 59 0.00 -69 8 06/09/2025 11:45 PM
43054 15.2 4.03 -5 59 45 59 0.10 -71 8 06/09/2025 11:30 PM